STARLINK-1790, 46691

Orbit data source: Space-Track

STARLINK-1790, 46691 is a payload satellite owned by SpaceX/Seattle (US) in LEO that was launched on Sun, 18 Oct 2020 UTC via an FALCON 9 launch vehicle from the Air Force Eastern Test Range (AFETR). Payloads include a variety of satellites, spacecraft, and rockets equipped with specific instruments for various scientific and technological missions. These include communications satellites like Starlink; space stations such as the ISS; scientific satellites like the Hubble; Earth observation satellites from companies like Planet Labs, Umbra, and HawkEye 360; GPS; miniature CubeSats for education and research; and military/defense satellites.

Loading next visibility...
STARLINK-1790 details
Identifier
46691, 2020-073X
Orbit
LEO
Last TLE update20 hours ago
Origin
Flag of USSpaceX/Seattle (US)
ManufacturerSpaceX/Seattle
MissionOperational Commercial Communications
Bus & MotorSTARLINK, Unknown motor
Mass260 kg wet, ~248 kg dry
Launch date (UTC)
2020-10-18 (4 years ago)
Launch vehicle
FALCON 9
Launch site
Air Force Eastern Test Range (AFETR)
Object type
Payload
Rocket body
Debris
Shape & HBRBox + 1 Pan, 8.86 m
Radar Cross Section13.562 m², Large (>1 m²)

Expand to show TLE details & history

TLE from 20 hours ago
0 STARLINK-1790
1 46691U 20073X   24360.86487274  .00027410  00000-0  18528-2 0  9999
2 46691  53.0545  51.5784 0001579  79.4336 280.6831 15.06381848230988
Epoch: 2024-12-25T20:45Z
Definitive object data (Epoch: 2024-12-25T20:45:25.004Z)
Latitude-0.00002°
Longitude5.37171°
Altitude547.944 km
Speed7.589 km/s
True Right ascension03h 26m 18s
True Declination0° 00' 00"
Sunlit
Object was in full shadow at TLE epoch
Visualization TLE readout
Latitude52.79357°
Longitude101.60331°
Altitude552.529 km
Speed7.592 km/s
Apparent Right ascension06h 26m 50s
Apparent Declination12° 46' 48"
Sunlit
Object is in full shadow
Visualization observer readout
Local Sidereal Time15:39:28
Azimuth314.344° NW
Elevation-24.537°
Doppler factor1
Orbital elements
Apogee altitude548.631 km
Perigee altitude546.444 km
Semi-major axis6,925.675 km
Eccentricity0.0001579
Inclination53.0545°
RAAN51.5784°
Arg. of periapsis79.4336°
True anomaly280.66532°
Mean anomaly280.6831°
Eccentric anomaly280.67421°
Mean motion3.76574 °/min
BSTAR0.0018528
Orbital period95.6 mins
Loading maneuver chart data...
Loading historical data...
Loading historical data...
Loading historical data...
Loading historical data...
Loading historical data...
Loading historical data...
Loading historical data...

STARLINK-1790 Visibility forecast

Observer location: undefined°, undefined

Span
Click to sort rows by Start time (UTC) header in descending order
Start Az.
Max El. time (UTC)
Max El. Az.
Max El.
End time (UTC)
End Az.
4 mins2024-12-27 04:45:19.304Z158.318° S2024-12-27 04:47:19.304Z126.28° SE15.368°2024-12-27 04:49:19.304Z94.307° ESE
6 mins2024-12-27 06:24:19.304Z244.05° WSW2024-12-27 06:26:19.304Z312.049° NW43.115°2024-12-27 06:30:19.304Z46.192° ENE
4 mins2024-12-27 08:05:19.304Z318.706° NNW2024-12-27 08:06:19.304Z337.339° NNW17.705°2024-12-27 08:09:19.304Z25.826° NE
5 mins2024-12-27 11:26:19.304Z347.762° N2024-12-27 11:28:19.304Z29.998° NE21.988°2024-12-27 11:31:19.304Z78.582° E
6 mins2024-12-27 13:05:19.304Z302.671° NW2024-12-27 13:08:19.304Z180.074° SSW42.061°2024-12-27 13:11:19.304Z140.194° SSE
|